Location: Observatoire de Paris
(48.8363°N, 2.3365°E)
Time: 03:30:56
(UTC+01:00)

Vanguard 3 - Pass Details

Date: 02 August 2021
Orbit: 510 x 3260 km, 33.3° (Epoch: 18 September)

Event Time Altitude Azimuth Distance (km) Brightness Sun altitude
Rises 01:41:56 0° 275° (W) 7,221 11.9 -22.7°
Reaches altitude 10° 01:50:19 10° 257° (WSW) 6,139 11.3 -22.4°
Enters shadow 01:58:18 15° 232° (SW) 5,467 10.9 -22.0°
